Weather History for Jackson, TN

Change the Weather History Date:

Saturday, September 21, 2013

  Actual Average Record
Temperature  
Mean Temperature 64 °F 69 °F  
Max Temperature 76 °F 82 °F 98 °F (1955)
Min Temperature 52 °F 57 °F 40 °F (1983)
Degree Days  
Heating Degree Days 1 1  
Month to date heating degree days 4 6  
Since 1 July heating degree days 4 6  
Cooling Degree Days 0 6  
Month to date cooling degree days 209 180  
Year to date cooling degree days 1493 1603  
Growing Degree Days 15 (Base 50)    
Moisture  
Dew Point 60 °F    
Average Humidity 70    
Maximum Humidity 97    
Minimum Humidity 43    
Precipitation  
Precipitation 0.20 in 0.12 in 1.28 in (1979)
Month to date precipitation 2.16 2.22  
Year to date precipitation 47.25 38.09  
Snow  
Snow 0.00 in 0.00 in 0.00 in (2002)
Month to date snowfall 0.0 0.0  
Since 1 July snowfall 0.0 0.0  
Since 1 September snowfall 0.0 0.0  
Snow Depth 0.00 in    
Sea Level Pressure  
Sea Level Pressure 29.85 in    
Wind  
Wind Speed 8 mph (North)    
Max Wind Speed 17 mph    
Max Gust Speed 22 mph    
Visibility 9 miles    
Events Rain    
T = Trace of Precipitation, MM = Missing Value Source: NWS Daily Summary

Daily Weather History Graph

Daily Weather History Graph

Search for Another Location

Airport:

Trip Planner

Search our weather history database for the weather conditions in past years. The results will help you decide how hot, cold, wet, or windy it might be!

Date:

Astronomy

Sep. 21, 2013 Rise Set
Actual Time 6:43 AM CDT 6:53 PM CDT
Civil Twilight 6:17 AM CDT 7:19 PM CDT
Nautical Twilight 5:47 AM CDT 7:48 PM CDT
Astronomical Twilight 5:17 AM CDT 8:18 PM CDT
Moon 8:11 PM CDT (9/21) 8:55 AM CDT (9/21)
Length of Visible Light 13h 01m
Length of Day
12h 10m
Waning Gibbous, 94% of the Moon is Illuminated
Sep 21
Waning Gibbous
Sep 26
Last Quarter
Oct 4
New
Oct 11
First Quarter
Oct 18
Full

Hourly Weather History & Observations

Time (CDT) Temp. Dew Point Humidity Pressure Visibility Wind Dir Wind Speed Gust Speed Precip Events Conditions
12:00 AM 69.8 °F 69.8 °F 100% 29.83 in 4.0 mi WNW 3.5 mph - 0.01 in Rain Rain
12:18 AM 69.8 °F 69.8 °F 100% 29.83 in 6.0 mi NW 4.6 mph - 0.04 in Rain Light Rain
12:39 AM 69.8 °F 68.0 °F 94% 29.82 in 10.0 mi NNW 5.8 mph - 0.05 in Rain Light Rain
12:53 AM 70.0 °F 68.0 °F 93% 29.81 in 9.0 mi NNW 6.9 mph - 0.06 in Rain Light Rain
1:03 AM 69.8 °F 68.0 °F 94% 29.82 in 8.0 mi NW 5.8 mph - 0.01 in Rain Light Rain
1:29 AM 69.8 °F 68.0 °F 94% 29.82 in 7.0 mi NNW 9.2 mph - 0.09 in Rain Light Rain
1:53 AM 69.1 °F 66.9 °F 93% 29.81 in 9.0 mi North 11.5 mph - 0.10 in Rain Light Rain
2:10 AM 69.8 °F 66.2 °F 88% 29.82 in 7.0 mi North 6.9 mph - 0.03 in Rain Light Rain
2:53 AM 68.0 °F 66.9 °F 96% 29.80 in 10.0 mi North 6.9 mph - 0.05 in Rain Light Rain
3:07 AM 68.0 °F 66.2 °F 94% 29.81 in 10.0 mi North 6.9 mph - 0.01 in Rain Light Rain
3:33 AM 68.0 °F 66.2 °F 94% 29.81 in 8.0 mi North 4.6 mph - 0.02 in Rain Light Rain
3:53 AM 69.1 °F 66.9 °F 93% 29.80 in 8.0 mi NNW 4.6 mph - 0.03 in Rain Light Rain
4:53 AM 66.0 °F 63.0 °F 90% 29.81 in 10.0 mi North 13.8 mph - 0.02 in   Overcast
5:09 AM 64.4 °F 62.6 °F 94% 29.83 in 10.0 mi North 13.8 mph 20.7 mph N/A   Overcast
5:43 AM 64.4 °F 62.6 °F 94% 29.84 in 10.0 mi North 12.7 mph - N/A   Overcast
5:53 AM 64.9 °F 62.1 °F 90% 29.84 in 10.0 mi North 12.7 mph - N/A   Overcast
6:53 AM 64.0 °F 61.0 °F 90% 29.86 in 10.0 mi North 10.4 mph - N/A   Overcast
7:06 AM 64.4 °F 60.8 °F 88% 29.87 in 10.0 mi North 8.1 mph - N/A   Overcast
7:26 AM 64.4 °F 62.6 °F 94% 29.88 in 10.0 mi North 8.1 mph - N/A   Overcast
7:50 AM 64.4 °F 60.8 °F 88% 29.89 in 10.0 mi North 10.4 mph - N/A   Overcast
7:53 AM 64.0 °F 61.0 °F 90% 29.88 in 10.0 mi North 11.5 mph - N/A   Mostly Cloudy
7:56 AM 64.4 °F 60.8 °F 88% 29.89 in 10.0 mi North 10.4 mph - N/A   Mostly Cloudy
8:53 AM 64.0 °F 59.0 °F 84% 29.89 in 10.0 mi North 11.5 mph - N/A   Scattered Clouds
9:53 AM 64.9 °F 57.0 °F 75% 29.91 in 10.0 mi North 10.4 mph - N/A   Clear
10:53 AM 68.0 °F 54.0 °F 61% 29.91 in 10.0 mi NNE 16.1 mph - N/A   Clear
11:53 AM 70.0 °F 55.0 °F 59% 29.91 in 10.0 mi NNE 11.5 mph - N/A   Clear
12:53 PM 73.0 °F 55.0 °F 53% 29.89 in 10.0 mi NNE 11.5 mph 17.3 mph N/A   Clear
1:53 PM 73.9 °F 53.1 °F 48% 29.88 in 10.0 mi NNW 9.2 mph - N/A   Clear
2:53 PM 75.0 °F 53.1 °F 46% 29.86 in 10.0 mi NNW 13.8 mph - N/A   Clear
3:53 PM 75.0 °F 51.1 °F 43% 29.84 in 10.0 mi North 11.5 mph - N/A   Clear
4:53 PM 75.0 °F 51.1 °F 43% 29.85 in 10.0 mi NNE 10.4 mph - N/A   Clear
5:53 PM 73.0 °F 51.1 °F 46% 29.86 in 10.0 mi North 10.4 mph - N/A   Clear
6:53 PM 66.9 °F 52.0 °F 59% 29.86 in 10.0 mi North 4.6 mph - N/A   Clear
7:53 PM 62.1 °F 53.1 °F 72% 29.88 in 10.0 mi NNW 4.6 mph - N/A   Clear
8:53 PM 60.1 °F 52.0 °F 75% 29.89 in 10.0 mi Calm Calm - N/A   Clear
9:53 PM 55.9 °F 52.0 °F 87% 29.90 in 10.0 mi Calm Calm - N/A   Clear
10:53 PM 55.9 °F 53.1 °F 90% 29.89 in 10.0 mi Calm Calm - N/A   Clear
11:53 PM 54.0 °F 51.1 °F 90% 29.89 in 10.0 mi Calm Calm - N/A   Clear